Location: Cape Cod Imaging Station
(41.7417°N, 70.1583°W)
Time: 02:38:44
(UTC-04:00)

ISS - Visible Passes

Search period start: 20 July 2018 00:00
Search period end: 30 July 2018 00:00
Orbit: 402 x 408 km, 51.6° (Epoch: 20 July)

Date Brightness Start Highest point End Pass type
(mag) Time Alt. Az. Time Alt. Az. Time Alt. Az.
20 Jul -0.6 00:52:55 10° NW 00:54:52 15° N 00:56:50 10° NE visible
20 Jul -1.1 02:29:37 10° NW 02:32:15 22° NNE 02:34:54 10° ENE visible
20 Jul -3.9 04:05:46 10° WNW 04:09:04 81° SW 04:12:22 10° SE visible
20 Jul -2.8 20:46:10 10° SSW 20:48:57 26° SE 20:51:44 10° ENE visible
20 Jul -2.4 22:22:13 10° W 22:25:20 39° NNW 22:28:27 10° NE visible
21 Jul -0.7 00:00:22 10° NW 00:02:29 16° N 00:04:36 10° NNE visible
21 Jul -0.8 01:37:37 10° NNW 01:39:55 17° NNE 01:42:14 10° ENE visible
21 Jul -3.1 03:13:42 10° NW 03:16:57 55° NNE 03:20:12 10° ESE visible
21 Jul -2.3 04:50:53 10° W 04:53:10 18° SW 04:55:26 10° S visible
21 Jul -3.5 21:29:54 10° WSW 21:33:09 68° NNW 21:36:26 10° NE visible
21 Jul -0.9 23:07:42 10° WNW 23:10:07 19° NNW 23:12:31 10° NNE visible
22 Jul -0.6 00:45:29 10° NNW 00:47:32 15° N 00:49:36 10° NE visible
22 Jul -2.1 02:21:42 10° NW 02:24:45 34° NNE 02:27:48 10° E visible
22 Jul -3.2 03:58:14 10° WNW 04:01:13 32° SW 04:04:12 10° SSE visible
22 Jul -3.9 20:37:49 10° SW 20:41:02 64° SE 20:44:18 10° ENE visible
22 Jul -1.3 22:15:02 10° WNW 22:17:46 24° NNW 22:20:30 10° NE visible
22 Jul -0.6 23:53:11 10° NW 23:55:07 15° N 23:57:03 10° NE visible
23 Jul -1.0 01:29:43 10° NW 01:30:54 17° NNW 01:30:54 17° NNW visible
23 Jul -2.0 21:22:27 10° W 21:25:28 34° NNW 21:28:30 10° NE visible
23 Jul -0.6 23:00:39 10° NW 23:02:41 15° N 23:04:43 10° NNE visible
24 Jul -0.9 00:37:41 10° NNW 00:39:30 18° N 00:39:30 18° N visible
24 Jul -0.8 22:07:59 10° WNW 22:10:16 17° NNW 22:12:33 10° NNE visible
24 Jul -0.9 23:45:35 10° NNW 23:47:42 16° N 23:48:35 15° NNE visible
25 Jul -1.2 21:15:16 10° WNW 21:17:52 21° NNW 21:20:29 10° NE visible
25 Jul -0.7 22:53:18 10° NW 22:55:15 15° N 22:57:12 10° NE visible
26 Jul -0.7 00:29:41 10° NW 00:30:26 15° NNW 00:30:26 15° NNW visible
26 Jul -0.8 22:00:48 10° NW 22:02:47 15° N 22:04:45 10° NNE visible
26 Jul -1.2 23:37:39 10° NW 23:39:46 20° N 23:39:46 20° N visible
27 Jul -0.9 21:08:08 10° NW 21:10:18 16° N 21:12:29 10° NNE visible
27 Jul -1.1 22:45:32 10° NNW 22:47:45 17° N 22:49:09 13° NE visible
28 Jul -0.5 00:21:37 10° NW 00:21:46 11° NW 00:21:46 11° NW visible
28 Jul -0.9 21:53:17 10° NNW 21:55:16 15° N 21:57:15 10° NE visible
28 Jul -1.3 23:29:32 10° NW 23:31:10 22° NNW 23:31:10 22° NNW visible
29 Jul -1.0 21:00:49 10° NW 21:02:46 15° N 21:04:41 10° NE visible
29 Jul -1.7 22:37:28 10° NW 22:40:08 22° NNE 22:40:36 21° NNE visible
